This demonstration page uses our WeatherBlox Daily Observations layout. Learn more.

Left ArrowRight Arrow

Hourly Observations for September 16, 2015

Temp ( °F °C ) Dew Point ( °F °C ) Humidity (%) Winds ( mph kmh ) Pressure ( in mb ) Visibility ( mi km ) Precip ( " mm )
12:51 am 00:51 Mostly Clear 76 24.4 56 13.3 50 50 W 7 11 29.84 1010 10 16.0934 0 0
1:51 am 01:51 Clear 74 23.3 57 13.9 56 56 NNW 3 6 29.85 1011 10 16.0934 0 0
2:51 am 02:51 Clear 73 22.8 58 14.4 59 59 VRB 3 6 29.85 1011 10 16.0934 0 0
3:51 am 03:51 Clear 70 21.1 57 13.9 64 64 Calm 29.85 1011 10 16.0934 0 0
4:51 am 04:51 Clear 67 19.4 55 12.8 66 66 ESE 6 9 29.87 1012 10 16.0934 0 0
5:51 am 05:51 Clear 67 19.4 57 13.9 71 71 ESE 5 7 29.89 1012 10 16.0934 0 0
6:51 am 06:51 Sunny 71 21.7 57 13.9 61 61 E 6 9 29.91 1013 10 16.0934 0 0
7:51 am 07:51 Mostly Cloudy 76 24.4 58 14.4 54 54 SE 5 7 29.92 1013 10 16.0934 0 0
8:51 am 08:51 Sunny 80 26.7 59 15 49 49 SSW 3 6 29.91 1013 10 16.0934 0 0
9:51 am 09:51 Sunny 82 27.8 58 14.4 44 44 Calm 29.91 1013 10 16.0934 0 0
10:51 am 10:51 Sunny 86 30 56 13.3 36 36 WSW 6 9 29.89 1012 10 16.0934 0 0
11:51 am 11:51 Sunny 88 31.1 54 12.2 31 31 SSE 5 7 29.87 1012 10 16.0934 0 0
12:51 pm 12:51 Mostly Sunny 91 32.8 53 11.7 27 27 WNW 12 19 29.84 1011 10 16.0934 0 0
1:51 pm 13:51 Sunny 90 32.2 52 11.1 27 27 VRB 5 7 29.83 1010 10 16.0934 0 0
2:51 pm 14:51 Partly Cloudy 93 33.9 49 9.4 22 22 W 12 19 29.8 1009 10 16.0934 0 0
3:51 pm 15:51 Mostly Sunny 95 35 45 7.2 18 18 W 15 24 29.78 1009 10 16.0934 0 0
4:51 pm 16:51 Partly Cloudy 93 33.9 46 7.8 20 20 WSW 10 17 29.79 1009 10 16.0934 0 0
5:51 pm 17:51 Sunny 89 31.7 49 9.4 25 25 WNW 12 19 29.79 1009 10 16.0934 0 0
6:51 pm 18:51 Clear 86 30 51 10.6 30 30 NW 9 15 29.8 1009 10 16.0934 0 0
7:51 pm 19:51 Clear 83 28.3 52 11.1 34 34 NW 12 19 29.8 1009 10 16.0934 0 0
8:51 pm 20:51 Clear 82 27.8 54 12.2 38 38 NW 10 17 29.82 1010 10 16.0934 0 0
9:51 pm 21:51 Clear 79 26.1 53 11.7 41 41 NW 7 11 29.82 1010 10 16.0934 0 0
10:51 pm 22:51 Clear 77 25 53 11.7 43 43 NW 8 13 29.82 1010 10 16.0934 0 0
11:51 pm 23:51 Clear 76 24.4 53 11.7 45 45 NW 5 7 29.83 1010 10 16.0934 0 0

Powered by AerisWeather